Regional Weather Roundup
Issued by NWS

Home | Current Version | Previous Version | Graphics & Text | Print | Product List | Glossary Off
Versions: 1 2 3 4 5 6 7 8 9 10 11 12 13 14 15 16 17 18 19 20 21 22 23 24 25 26 27 28 29 30 31 32 33 34 35 36 37 38 39 40 41 42 43 44 45 46 47 48 49 50

010
ASUS45 KBOI 241610
RWRID

IDAHO REGIONAL WEATHER ROUNDUP
NATIONAL WEATHER SERVICE BOISE ID
900 AM MST SAT FEB 24 2018

NOTE: "FAIR" INDICATES FEW OR NO CLOUDS BELOW 12000 FEET
WITH NO SIGNIFICANT WEATHER AND/OR OBSTRUCTIONS TO VISIBILITY

IDZ012-014-241700-
SOUTHWEST IDAHO


CITY           SKY/WX    TMP DP  RH WIND       PRES   REMARKS
BOISE          CLOUDY    26  21  81 SE12      30.01F WCI  16
CALDWELL       FLURRIES  28  23  81 E13       30.03F WCI  17
MOUNTAIN HOME  PTSUNNY   26  19  74 E15       30.03F WCI  14
$$

IDZ016-017-241700-
SOUTHCENTRAL IDAHO


CITY           SKY/WX    TMP DP  RH WIND       PRES   REMARKS
BURLEY         CLOUDY    24  14  65 S16       30.03F WCI  11
JEROME         CLOUDY    26  13  57 S6        30.04F WCI  19
TWIN FALLS     CLOUDY    24  15  68 S15       30.02F WCI  11
$$

IDZ019>023-241700-
SOUTHEAST IDAHO


CITY           SKY/WX    TMP DP  RH WIND       PRES   REMARKS
IDAHO FALLS    CLOUDY    19   9  65 SW18      30.00F WCI   4
POCATELLO      CLOUDY    24  11  57 SW15      30.04F WCI  11
REXBURG        CLOUDY    16  10  77 SW14G23   29.98F WCI   2
$$

IDZ006-010-011-018-031-032-241700-
CENTRAL IDAHO MOUNTAINS


CITY           SKY/WX    TMP DP  RH WIND       PRES   REMARKS
MCCALL         LGT SNOW  16  12  84 CALM      29.84F FOG
HAILEY         CLOUDY    12   5  73 NW3       29.97S
STANLEY          N/A     13   8  81 VRB3      29.84F
SALMON         PTSUNNY   21  13  71 N5        29.91F WCI  15
CHALLIS        CLOUDY    23   8  52 N3        29.87F
$$

IDZ002-004-006-007-026-241700-
NORTHERN IDAHO


CITY           SKY/WX    TMP DP  RH WIND       PRES   REMARKS
LEWISTON       FLURRIES  33  27  78 S6        29.88S WCI  28
LOWELL           N/A     27  24  89 CALM      29.96F
COEUR D`ALENE  LGT SNOW  23  21  92 N10       29.85S FOG     WCI  12
MULLAN PASS    LGT SNOW  11  10  96 S3        29.65F FOG
$$




USA.gov is the U.S. government's official web portal to all federal, state and local government web resources and services.